TimeCDT,TemperatureF,Dew PointF,Humidity,Sea Level PressureIn,VisibilityMPH,Wind Direction,Wind SpeedMPH,Gust SpeedMPH,PrecipitationIn,Events,Conditions,WindDirDegrees,DateUTC
12:15 AM,57.2,51.8,82,30.01,10.0,Calm,Calm,-,N/A,,Clear,0,2013-07-24 05:15:00
12:35 AM,57.2,51.8,82,30.00,10.0,ENE,3.5,-,N/A,,Clear,70,2013-07-24 05:35:00
12:55 AM,57.2,51.8,82,30.00,10.0,Calm,Calm,-,N/A,,Clear,0,2013-07-24 05:55:00
1:15 AM,57.2,51.8,82,30.01,10.0,Calm,Calm,-,N/A,,Clear,0,2013-07-24 06:15:00
1:35 AM,55.4,51.8,88,30.00,10.0,NE,3.5,-,N/A,,Clear,50,2013-07-24 06:35:00
1:55 AM,57.2,51.8,82,30.00,10.0,Calm,Calm,-,N/A,,Clear,0,2013-07-24 06:55:00
2:15 AM,55.4,51.8,88,30.01,10.0,Calm,Calm,-,N/A,,Clear,0,2013-07-24 07:15:00
2:35 AM,55.4,51.8,88,30.01,10.0,Calm,Calm,-,N/A,,Clear,0,2013-07-24 07:35:00
2:55 AM,55.4,51.8,88,30.01,10.0,Calm,Calm,-,N/A,,Clear,0,2013-07-24 07:55:00
3:15 AM,55.4,51.8,88,30.02,10.0,Calm,Calm,-,N/A,,Clear,0,2013-07-24 08:15:00
3:35 AM,53.6,51.8,94,30.02,10.0,Calm,Calm,-,N/A,,Clear,0,2013-07-24 08:35:00
3:55 AM,53.6,51.8,94,30.03,10.0,Calm,Calm,-,N/A,,Clear,0,2013-07-24 08:55:00
4:15 AM,53.6,51.8,94,30.02,10.0,Calm,Calm,-,N/A,,Clear,0,2013-07-24 09:15:00
4:35 AM,53.6,50.0,88,30.03,1.2,NW,3.5,-,N/A,,Mist,320,2013-07-24 09:35:00
4:55 AM,53.6,50.0,88,30.04,5.0,NNW,3.5,-,N/A,,Clear,330,2013-07-24 09:55:00
5:15 AM,53.6,50.0,88,30.03,1.8,Calm,Calm,-,N/A,,Mist,0,2013-07-24 10:15:00
5:35 AM,53.6,50.0,88,30.03,2.5,Calm,Calm,-,N/A,,Clear,0,2013-07-24 10:35:00
5:45 AM,53.6,51.8,94,30.05,10.0,WNW,3.5,-,N/A,,Clear,300,2013-07-24 10:45:00
6:45 AM,57.2,53.6,88,30.05,10.0,Calm,Calm,-,N/A,,Clear,0,2013-07-24 11:45:00
7:45 AM,62.6,53.6,72,30.07,10.0,NNE,3.5,-,N/A,,Clear,20,2013-07-24 12:45:00
8:45 AM,64.4,51.8,64,30.07,10.0,ENE,5.8,-,N/A,,Partly Cloudy,60,2013-07-24 13:45:00
9:45 AM,68.0,48.2,49,30.08,10.0,ENE,8.1,-,N/A,,Scattered Clouds,70,2013-07-24 14:45:00
10:45 AM,69.8,46.4,43,30.08,10.0,NE,6.9,-,N/A,,Scattered Clouds,40,2013-07-24 15:45:00
11:45 AM,71.6,46.4,41,30.08,10.0,ENE,4.6,-,N/A,,Scattered Clouds,70,2013-07-24 16:45:00
12:45 PM,71.6,48.2,43,30.08,10.0,North,4.6,-,N/A,,Mostly Cloudy,10,2013-07-24 17:45:00
1:45 PM,71.6,46.4,41,30.07,10.0,North,5.8,-,N/A,,Scattered Clouds,10,2013-07-24 18:45:00
2:45 PM,71.6,46.4,41,30.06,10.0,NNW,6.9,-,N/A,,Scattered Clouds,340,2013-07-24 19:45:00
3:45 PM,73.4,44.6,36,30.05,10.0,Variable,5.8,-,N/A,,Scattered Clouds,0,2013-07-24 20:45:00
4:45 PM,73.4,48.2,41,30.04,10.0,Calm,Calm,-,N/A,,Mostly Cloudy,0,2013-07-24 21:45:00
5:45 PM,73.4,48.2,41,30.05,10.0,ENE,6.9,-,N/A,,Mostly Cloudy,60,2013-07-24 22:45:00
8:45 PM,66.2,51.8,60,30.04,10.0,Calm,Calm,-,N/A,,Clear,0,2013-07-25 01:45:00
9:15 PM,64.4,51.8,64,30.04,10.0,Calm,Calm,-,N/A,,Clear,0,2013-07-25 02:15:00
9:35 PM,62.6,53.6,72,30.05,10.0,Calm,Calm,-,N/A,,Clear,0,2013-07-25 02:35:00
9:55 PM,60.8,51.8,72,30.05,10.0,Calm,Calm,-,N/A,,Clear,0,2013-07-25 02:55:00
10:15 PM,60.8,51.8,72,30.05,10.0,Calm,Calm,-,N/A,,Clear,0,2013-07-25 03:15:00
10:35 PM,60.8,51.8,72,30.06,10.0,Calm,Calm,-,N/A,,Clear,0,2013-07-25 03:35:00
10:55 PM,59.0,51.8,77,30.07,10.0,Calm,Calm,-,N/A,,Clear,0,2013-07-25 03:55:00
11:15 PM,59.0,51.8,77,30.07,10.0,ESE,3.5,-,N/A,,Clear,120,2013-07-25 04:15:00
11:35 PM,59.0,51.8,77,30.07,10.0,Calm,Calm,-,N/A,,Clear,0,2013-07-25 04:35:00
11:55 PM,59.0,51.8,77,30.07,10.0,Calm,Calm,-,N/A,,Clear,0,2013-07-25 04:55:00